Location: Unspecified
(0.0000°N, 0.0000°E)
Time: 15:32:26
(UTC+00:00)

Kosmos-87 - Visible Passes

Search period start: 15 June 2025 00:00
Search period end: 25 June 2025 00:00
Orbit: 1316 x 1634 km, 56.1° (Epoch: 14 June)

Date Brightness Start Highest point End Pass type
(mag) Time Alt. Az. Time Alt. Az. Time Alt. Az.
15 Jun ? 18:28:39 10° SSW 18:37:26 69° ESE 18:46:50 10° NE visible
15 Jun ? 20:32:01 10° W 20:38:08 20° WNW 20:44:32 10° NNW visible
16 Jun ? 05:03:54 10° NNE 05:09:55 19° NE 05:15:41 10° E visible
16 Jun ? 19:32:47 10° WSW 19:40:55 39° WNW 19:49:34 10° N visible
17 Jun ? 18:35:04 10° SW 18:43:53 73° WNW 18:53:21 10° NNE visible
18 Jun ? 05:08:31 10° N 05:16:36 35° ENE 05:24:13 10° ESE visible
18 Jun ? 19:41:03 10° WSW 19:47:36 22° WNW 19:54:27 10° N visible
19 Jun ? 04:13:54 10° NNE 04:19:23 17° NE 04:24:40 10° E visible
19 Jun ? 18:42:08 10° SW 18:50:24 43° WNW 18:59:13 10° N visible
20 Jun ? 05:14:08 10° NNW 05:23:10 60° ENE 05:31:35 10° SE visible
20 Jun ? 19:52:15 10° WNW 19:54:27 11° NW 19:56:40 10° NW visible
21 Jun ? 04:18:14 10° N 04:26:07 31° ENE 04:33:32 10° ESE visible
21 Jun ? 18:50:10 10° WSW 18:57:03 25° WNW 19:04:17 10° N visible
22 Jun ? 03:24:00 10° NNE 03:28:50 15° NE 03:33:30 10° E visible
22 Jun ? 05:20:26 10° NNW 05:29:38 82° WSW 05:38:13 10° SSE visible
23 Jun ? 04:23:43 10° NNW 04:32:42 55° ENE 04:41:04 10° SE visible
23 Jun ? 19:00:19 10° WNW 19:03:52 13° NW 19:07:31 10° NNW visible
24 Jun ? 03:27:58 10° N 03:35:36 28° ENE 03:42:48 10° ESE visible
24 Jun ? 05:27:24 10° NW 05:36:03 48° WSW 05:44:12 10° SSE visible
